Location: *
(40.7873°S, 98.7174°E)
Time: 21:23:53
(UTC+00:00)

Cosmos 192 - Pass Details

Date: 27 September 2022
Orbit: 701 x 711 km, 74.0° (Epoch: 05 December)

Event Time Altitude Azimuth Distance (km) Brightness Sun altitude
Rises 11:58:40 0° 313° (NW) 3,089 8.3 -6.9°
Reaches altitude 10° 12:01:16 10° 301° (WNW) 2,179 7.7 -7.4°
Maximum altitude 12:05:29 28° 242° (WSW) 1,319 6.7 -8.2°
Drops below altitude 10° 12:09:46 10° 182° (S) 2,203 7.1 -9.0°
Sets 12:12:26 0° 170° (S) 3,130 7.7 -9.4°
